Weather History for Paso Robles, CA

Change the Weather History Date:

Friday, January 24, 2014

  Actual Average Record
Temperature  
Mean Temperature 57 °F 48 °F  
Max Temperature 74 °F 60 °F 76 °F (1968)
Min Temperature 39 °F 36 °F 24 °F (1962)
Degree Days  
Heating Degree Days 8 17  
Month to date heating degree days 305 433  
Since 1 July heating degree days 1340 1557  
Cooling Degree Days 0 0  
Month to date cooling degree days 0 0  
Year to date cooling degree days 0 0  
Growing Degree Days 6 (Base 50)    
Moisture  
Dew Point 41 °F    
Average Humidity 56    
Maximum Humidity 92    
Minimum Humidity 20    
Precipitation  
Precipitation 0.00 in 0.09 in 2.02 in (1995)
Month to date precipitation 0.00 2.13  
Year to date precipitation 0.00 2.13  
Since 1 July precipitation 0.46 6.12  
Sea Level Pressure  
Sea Level Pressure 30.15 in    
Wind  
Wind Speed 3 mph (South)    
Max Wind Speed 15 mph    
Max Gust Speed 18 mph    
Visibility 10 miles    
Events      
T = Trace of Precipitation, MM = Missing Value Source: NWS Daily Summary

Daily Weather History Graph

Daily Weather History Graph

Search for Another Location

Airport:

Trip Planner

Search our weather history database for the weather conditions in past years. The results will help you decide how hot, cold, wet, or windy it might be!

Date:

Astronomy

Jan. 24, 2014 Rise Set
Actual Time 7:07 AM PST 5:21 PM PST
Civil Twilight 6:40 AM PST 5:49 PM PST
Nautical Twilight 6:09 AM PST 6:20 PM PST
Astronomical Twilight 5:39 AM PST 6:50 PM PST
Moon 12:43 AM PST (1/24) 11:42 AM PST (1/24)
Length of Visible Light 11h 08m
Length of Day
10h 14m
Last Quarter, 43% of the Moon is Illuminated
Jan 24
Last Quarter
Jan 30
New
Feb 6
First Quarter
Feb 14
Full
Feb 22
Last Quarter

Hourly Weather History & Observations

Time (PST) Temp. Windchill Dew Point Humidity Pressure Visibility Wind Dir Wind Speed Gust Speed Precip Events Conditions
12:53 AM 42.1 °F - 37.0 °F 82% 30.04 in 8.0 mi Calm Calm - N/A   Clear
1:53 AM 44.1 °F - 39.0 °F 82% 30.05 in 10.0 mi Calm Calm - N/A   Clear
2:53 AM 42.1 °F - 37.0 °F 82% 30.06 in 10.0 mi Calm Calm - N/A   Clear
3:53 AM 39.9 °F - 37.0 °F 89% 30.06 in 9.0 mi Calm Calm - N/A   Clear
4:53 AM 42.1 °F - 39.0 °F 89% 30.08 in 9.0 mi Calm Calm - N/A   Clear
5:53 AM 42.1 °F - 36.0 °F 79% 30.09 in 10.0 mi Calm Calm - N/A   Clear
6:53 AM 39.9 °F 37.8 °F 35.1 °F 83% 30.11 in 10.0 mi East 3.5 mph - N/A   Clear
7:53 AM 42.1 °F - 36.0 °F 79% 30.14 in 8.0 mi Calm Calm - N/A   Clear
8:53 AM 48.0 °F - 39.0 °F 71% 30.15 in 10.0 mi Calm Calm - N/A   Clear
9:53 AM 52.0 °F - 39.9 °F 63% 30.17 in 10.0 mi Calm Calm - N/A   Clear
10:53 AM 59.0 °F - 39.9 °F 49% 30.17 in 10.0 mi SSW 4.6 mph - N/A   Clear
11:53 AM 64.0 °F - 39.9 °F 41% 30.16 in 10.0 mi Calm Calm - N/A   Clear
12:53 PM 71.1 °F - 36.0 °F 28% 30.14 in 10.0 mi WNW 6.9 mph - N/A   Clear
1:53 PM 73.9 °F - 32.0 °F 21% 30.13 in 10.0 mi Variable 5.8 mph - N/A   Clear
2:53 PM 73.0 °F - 30.0 °F 20% 30.13 in 10.0 mi SSW 12.7 mph - N/A   Clear
3:53 PM 69.1 °F - 37.0 °F 31% 30.15 in 10.0 mi SW 9.2 mph - N/A   Clear
4:53 PM 64.0 °F - 42.1 °F 45% 30.17 in 10.0 mi SSW 4.6 mph - N/A   Clear
5:53 PM 60.1 °F - 46.9 °F 62% 30.19 in 10.0 mi South 4.6 mph - N/A   Clear
6:53 PM 57.9 °F - 50.0 °F 75% 30.23 in 10.0 mi South 5.8 mph - N/A   Clear
7:53 PM 57.0 °F - 51.1 °F 81% 30.24 in 10.0 mi SE 3.5 mph - N/A   Clear
8:53 PM 55.9 °F - 51.1 °F 84% 30.25 in 10.0 mi SSE 3.5 mph - N/A   Clear
9:53 PM 53.1 °F - 48.9 °F 86% 30.24 in 10.0 mi ESE 3.5 mph - N/A   Clear
10:53 PM 53.1 °F - 48.9 °F 86% 30.25 in 10.0 mi SSE 3.5 mph - N/A   Clear
11:53 PM 52.0 °F - 46.9 °F 83% 30.23 in 10.0 mi Calm Calm - N/A   Mostly Cloudy